Location: Diati
(11.8376°N, 2.5966°E)
Time: 17:42:58
(UTC+00:00)

USA 234 - Pass Details

Date: 21 September 2020
Orbit: 1102 x 1106 km, 123.0° (Epoch: 16 October)

Event Time Altitude Azimuth Distance (km) Brightness Sun altitude
Rises 18:17:09 0° 41° (NE) 3,912 5.8 -8.4°
Reaches altitude 10° 18:19:38 10° 43° (NE) 2,955 5.1 -9.0°
Maximum altitude 18:26:08 70° 126° (SE) 1,166 3.2 -10.6°
Drops below altitude 10° 18:32:38 10° 209° (SSW) 2,957 5.9 -12.2°
Sets 18:35:07 0° 212° (SSW) 3,915 6.6 -12.8°
